Location: Buckland
(65.9785°N, 161.1281°W)
Time: 22:07:02
(UTC+00:00)

PRISM - Pass Details

Date: 22 January 2021
Orbit: 565 x 584 km, 98.2° (Epoch: 06 March)

Event Time Altitude Azimuth Distance (km) Brightness Sun altitude
Rises 16:21:36 0° 24° (NNE) 2,786 ? -21.3°
Reaches altitude 10° 16:24:08 10° 9° (N) 1,888 ? -21.0°
Enters shadow 16:25:49 18° 347° (NNW) 1,457 ? -20.8°
